Location: ????????
(55.3939°N, 37.4780°E)
Time: 15:29:09
(UTC+00:00)

NOSS 2-1 (E) - Pass Details

Date: 14 April 2026
Orbit: 385 x 1749 km, 63.3° (Epoch: 7 May)

Event Time Altitude Azimuth Distance (km) Brightness Sun altitude
Rises 18:58:14 0° 306° (NW) 2,310 8.0 -17.7°
Reaches altitude 10° 19:00:08 10° 301° (WNW) 1,498 6.6 -17.8°
Maximum altitude 19:03:16 51° 225° (SW) 596 3.4 -18.1°
Enters shadow 19:03:59 43° 184° (S) 690 3.4 -18.2°
